Wise, VA

10:00 AM EST on November 17, 2019 (GMT -0500)
Lonesome Pine

Weather History for KLNP - August, 2019

Change the Weather History Date:

Thursday, August 22, 2019

  Actual Average Record
Temperature  
Mean Temperature 75 °F -  
Max Temperature 82 °F 78 °F 91 °F (2007)
Min Temperature 68 °F 59 °F 53 °F (1997)
Cooling Degree Days 10    
Growing Degree Days 25 (Base 50)    
Moisture  
Dew Point 67 °F    
Average Humidity 84    
Maximum Humidity 100    
Minimum Humidity 54    
Precipitation  
Precipitation 0.11 in - - ()
Sea Level Pressure  
Sea Level Pressure 30.14 in    
Wind  
Wind Speed 5 mph (SW)    
Max Wind Speed 15 mph    
Max Gust Speed 21 mph    
Visibility 10 miles    
Events Rain , Thunderstorm    
Averages and records for this station are not official NWS values.
T = Trace of Precipitation, MM = Missing Value Source: NWS Daily Summary

Daily Weather History Graph

Daily Weather History Graph

Search for Another Location

Airport or City:

Astronomy

Aug. 22, 2019 Rise Set
Actual Time 6:52 AM EDT 8:12 PM EDT
Civil Twilight 6:25 AM EDT 8:39 PM EDT
Nautical Twilight 5:52 AM EDT 9:12 PM EDT
Astronomical Twilight 5:18 AM EDT 9:46 PM EDT
Moon No Moon Rise 1:17 PM EDT (8/22)
Length of Visible Light 14h 14m
Length of Day
13h 20m
Waning Gibbous, 60% of the Moon is Illuminated
Aug 22
Waning Gibbous
Aug 23
Last Quarter
Aug 30
New
Sep 5
First Quarter
Sep 14
Full

Hourly Weather History & Observations

Time (EDT) Temp. Heat Index Dew Point Humidity Pressure Visibility Wind Dir Wind Speed Gust Speed Precip Events Conditions
12:15 AM 71.6 °F - 64.4 °F 78% 30.16 in 10.0 mi SW 3.5 mph - N/A   Clear
12:35 AM 69.8 °F - 64.4 °F 83% 30.16 in 10.0 mi SSW 3.5 mph - N/A   Clear
12:55 AM 69.8 °F - 64.4 °F 83% 30.16 in 10.0 mi SW 3.5 mph - N/A   Clear
1:15 AM 69.8 °F - 66.2 °F 88% 30.15 in 10.0 mi West 3.5 mph - N/A   Clear
1:35 AM 69.8 °F - 66.2 °F 88% 30.14 in 10.0 mi SW 4.6 mph - N/A   Clear
1:55 AM 71.6 °F - 64.4 °F 78% 30.13 in 10.0 mi WSW 4.6 mph - N/A   Clear
2:15 AM 69.8 °F - 66.2 °F 88% 30.12 in 10.0 mi SSW 3.5 mph - N/A   Clear
2:35 AM 69.8 °F - 68.0 °F 94% 30.11 in 10.0 mi SSW 3.5 mph - N/A   Clear
2:55 AM 69.8 °F - 66.2 °F 88% 30.11 in 10.0 mi SW 3.5 mph - N/A   Clear
3:35 AM 68.0 °F - 68.0 °F 100% 30.11 in 10.0 mi WSW 4.6 mph - N/A   Clear
3:55 AM 69.8 °F - 68.0 °F 94% 30.11 in 10.0 mi WSW 5.8 mph - N/A   Clear
4:15 AM 69.8 °F - 68.0 °F 94% 30.12 in 10.0 mi West 5.8 mph - N/A   Clear
4:35 AM 69.8 °F - 68.0 °F 94% 30.12 in 10.0 mi West 5.8 mph - N/A   Clear
4:55 AM 69.8 °F - 68.0 °F 94% 30.12 in 10.0 mi WSW 5.8 mph - N/A   Clear
5:15 AM 68.0 °F - 68.0 °F 100% 30.12 in 10.0 mi SW 3.5 mph - N/A   Clear
5:35 AM 68.0 °F - 68.0 °F 100% 30.14 in 10.0 mi SW 4.6 mph - N/A   Clear
5:55 AM 68.0 °F - 68.0 °F 100% 30.14 in 10.0 mi SW 4.6 mph - N/A   Clear
6:15 AM 68.0 °F - 68.0 °F 100% 30.15 in 10.0 mi WSW 5.8 mph - N/A   Clear
6:35 AM 68.0 °F - 68.0 °F 100% 30.15 in 10.0 mi SW 4.6 mph - N/A   Clear
6:55 AM 68.0 °F - 68.0 °F 100% 30.15 in 10.0 mi SW 4.6 mph - N/A   Clear
7:15 AM 68.0 °F - 68.0 °F 100% 30.16 in 10.0 mi WSW 4.6 mph - N/A   Clear
7:35 AM 69.8 °F - 69.8 °F 100% 30.15 in 10.0 mi SW 3.5 mph - N/A   Clear
7:55 AM 71.6 °F - 71.6 °F 100% 30.15 in 10.0 mi SW 3.5 mph - N/A   Scattered Clouds
8:15 AM 71.6 °F - 69.8 °F 94% 30.15 in 10.0 mi SW 3.5 mph - N/A   Scattered Clouds
8:35 AM 73.4 °F - 68.0 °F 83% 30.15 in 10.0 mi WSW 5.8 mph - N/A   Scattered Clouds
8:55 AM 75.2 °F - 68.0 °F 78% 30.16 in 10.0 mi WSW 5.8 mph - N/A   Clear
9:15 AM 77.0 °F - 68.0 °F 74% 30.16 in 10.0 mi WSW 6.9 mph - N/A   Scattered Clouds
9:35 AM 77.0 °F - 68.0 °F 74% 30.16 in 10.0 mi WSW 6.9 mph - N/A   Clear
9:55 AM 77.0 °F - 68.0 °F 74% 30.16 in 10.0 mi WSW 8.1 mph - N/A   Scattered Clouds
10:15 AM 77.0 °F - 68.0 °F 74% 30.16 in 10.0 mi WSW 6.9 mph - N/A   Scattered Clouds
10:35 AM 78.8 °F - 68.0 °F 69% 30.17 in 10.0 mi West 6.9 mph - N/A   Scattered Clouds
10:55 AM 78.8 °F - 66.2 °F 65% 30.17 in 10.0 mi West 8.1 mph - N/A Thunderstorm Mostly Cloudy
11:15 AM 80.6 °F 82.3 °F 64.4 °F 58% 30.17 in 10.0 mi WSW 5.8 mph - N/A   Scattered Clouds
11:35 AM 82.4 °F 83.9 °F 64.4 °F 54% 30.16 in 10.0 mi West 9.2 mph - N/A   Scattered Clouds
11:55 AM 80.6 °F 82.3 °F 64.4 °F 58% 30.16 in 10.0 mi West 5.8 mph - N/A   Mostly Cloudy
12:15 PM 80.6 °F 82.7 °F 66.2 °F 61% 30.16 in 10.0 mi SW 6.9 mph - N/A   Mostly Cloudy
12:35 PM 80.6 °F 82.3 °F 64.4 °F 58% 30.16 in 10.0 mi West 6.9 mph - N/A   Clear
12:55 PM 77.0 °F - 64.4 °F 65% 30.17 in 10.0 mi SW 15.0 mph 20.7 mph N/A Rain , Thunderstorm Light Thunderstorms and Rain
1:15 PM 69.8 °F - 66.2 °F 88% 30.17 in 7.0 mi SW 10.4 mph 18.4 mph 0.04 in Rain , Thunderstorm Heavy Thunderstorms and Rain
1:35 PM 68.0 °F - 66.2 °F 94% 30.17 in 5.0 mi SSW 8.1 mph - 0.10 in Rain Rain
1:55 PM 69.8 °F - 68.0 °F 94% 30.16 in 10.0 mi SW 6.9 mph - 0.11 in   Scattered Clouds
2:15 PM 73.4 °F - 68.0 °F 83% 30.16 in 10.0 mi WSW 8.1 mph - N/A Thunderstorm Clear
2:40 PM 73.4 °F - 69.8 °F 88% 30.15 in 10.0 mi WSW 11.5 mph - N/A   Scattered Clouds
3:00 PM 71.6 °F - 66.2 °F 83% 30.13 in 10.0 mi WSW 5.8 mph - N/A   Mostly Cloudy
3:35 PM 71.6 °F - 64.4 °F 78% 30.12 in 10.0 mi South 3.5 mph - N/A Rain Light Rain
3:55 PM 77.0 °F - 64.4 °F 65% 30.11 in 10.0 mi SSW 6.9 mph - N/A   Scattered Clouds
4:20 PM 80.6 °F 82.3 °F 64.4 °F 58% 30.10 in 10.0 mi SW 9.2 mph 16.1 mph N/A   Clear
4:35 PM 80.6 °F 81.8 °F 62.6 °F 54% 30.10 in 10.0 mi SW 11.5 mph - N/A   Clear
4:55 PM 80.6 °F 81.8 °F 62.6 °F 54% 30.10 in 10.0 mi SW 9.2 mph - N/A   Clear
5:15 PM 78.8 °F - 64.4 °F 61% 30.11 in 10.0 mi SW 11.5 mph - N/A   Clear
5:35 PM 77.0 °F - 64.4 °F 65% 30.12 in 10.0 mi WSW 10.4 mph - N/A Thunderstorm Clear
5:55 PM 77.0 °F - 64.4 °F 65% 30.11 in 10.0 mi WSW 8.1 mph - N/A   Scattered Clouds
6:35 PM 71.6 °F - 64.4 °F 78% 30.12 in 10.0 mi WSW 4.6 mph - N/A   Mostly Cloudy
6:55 PM 71.6 °F - 66.2 °F 83% 30.12 in 10.0 mi WSW 3.5 mph - N/A   Clear
7:15 PM 71.6 °F - 64.4 °F 78% 30.12 in 10.0 mi West 3.5 mph - N/A   Clear
7:35 PM 71.6 °F - 64.4 °F 78% 30.11 in 10.0 mi Calm Calm - N/A   Clear
7:55 PM 71.6 °F - 66.2 °F 83% 30.11 in 10.0 mi Calm Calm - N/A   Clear
8:15 PM 69.8 °F - 68.0 °F 94% 30.10 in 10.0 mi SSW 3.5 mph - N/A   Clear
8:35 PM 69.8 °F - 68.0 °F 94% 30.11 in 10.0 mi SSW 3.5 mph - N/A   Clear
8:55 PM 69.8 °F - 68.0 °F 94% 30.11 in 10.0 mi SW 3.5 mph - N/A Rain Light Rain
9:15 PM 69.8 °F - 69.8 °F 100% 30.11 in 10.0 mi South 3.5 mph - N/A   Mostly Cloudy
9:35 PM 69.8 °F - 69.8 °F 100% 30.12 in 10.0 mi SSW 5.8 mph - N/A   Overcast
9:55 PM 69.8 °F - 69.8 °F 100% 30.12 in 10.0 mi Calm Calm - N/A   Overcast
10:15 PM 69.8 °F - 69.8 °F 100% 30.12 in 10.0 mi Calm Calm - N/A   Mostly Cloudy
10:35 PM 69.8 °F - 69.8 °F 100% 30.12 in 10.0 mi SSW 3.5 mph - N/A   Mostly Cloudy
10:55 PM 69.8 °F - 69.8 °F 100% 30.12 in 10.0 mi SSW 3.5 mph - N/A   Overcast
11:15 PM 69.8 °F - 69.8 °F 100% 30.12 in 10.0 mi Calm Calm - N/A   Mostly Cloudy
11:35 PM 69.8 °F - 69.8 °F 100% 30.12 in 10.0 mi Calm Calm - N/A   Overcast
11:55 PM 69.8 °F - 69.8 °F 100% 30.12 in 10.0 mi SSW 4.6 mph - N/A   Mostly Cloudy